Location: Altmatt
(47.1333°N, 8.7000°E)
Time: 01:06:20
(UTC+00:00)

Cosmos 1607 - Pass Details

Date: 13 July 2020
Orbit: 913 x 989 km, 65.0° (Epoch: 04 August)

Event Time Altitude Azimuth Distance (km) Brightness Sun altitude
Exits shadow 22:35:59 35° 152° (SSE) 1,466 4.4 -20.1°
Maximum altitude 22:37:37 42° 116° (ESE) 1,318 4.4 -20.2°
Drops below altitude 10° 22:43:28 10° 48° (NE) 2,700 6.7 -20.4°
Sets 22:46:11 0° 41° (NE) 3,662 7.5 -20.5°
